When you browse on this site, cookies collect data to enhance your experience and personalize the content and advertising you see.
Visit our Privacy Policy to learn more. By continuing to use the site, you agree to this use of cookies and data.
  • In Austria
  • List of Countries
  • For 7 days
  • Water Temperature
  • Satellite Maps
  • Weather Map
  • News
  • Weather Widgets
  • user-avatar
    Login

    Hourly Weather Kozani

    Today, 10 December, Monday

    Time Temperature Precipitation Wind Pressure Humidity
    00:00 +6°C° 0.1 mm 1 mps 697 mmHg 84%
    01:00 +6°C° 0.1 mm 1 mps 696 mmHg 83%
    02:00 +6°C° 0.7 mm 1 mps 696 mmHg 84%
    03:00 +6°C° 0.7 mm 1 mps 695 mmHg 86%
    04:00 +6°C° 0.7 mm 1 mps 695 mmHg 87%
    05:00 +6°C° 0.1 mm 1 mps 694 mmHg 87%
    06:00 +6°C° 0.1 mm 1 mps 694 mmHg 88%
    07:00 +6°C° 0.1 mm 1 mps 694 mmHg 88%
    08:00 +5°C° 0.3 mm 2 mps 695 mmHg 84%
    09:00 +6°C° 0.3 mm 2 mps 695 mmHg 81%
    10:00 +7°C° 0.3 mm 3 mps 696 mmHg 78%
    11:00 +7°C° 0.8 mm 3 mps 696 mmHg 76%
    12:00 +5°C° 0.8 mm 4 mps 696 mmHg 74%
    13:00 +5°C° 0.8 mm 5 mps 696 mmHg 73%
    14:00 +5°C° 0 mm 4 mps 696 mmHg 73%
    15:00 +4°C° 0 mm 3 mps 696 mmHg 73%
    16:00 +4°C° 0 mm 3 mps 697 mmHg 74%
    17:00 +3°C° 0 mm 3 mps 697 mmHg 76%
    18:00 +4°C° 0 mm 2 mps 697 mmHg 77%
    19:00 +3°C° 0 mm 2 mps 698 mmHg 79%
    20:00 +3°C° 0 mm 2 mps 698 mmHg 80%
    21:00 +2°C° 0 mm 2 mps 698 mmHg 81%
    22:00 +2°C° 0 mm 2 mps 699 mmHg 82%
    23:00 +2°C° 0 mm 2 mps 699 mmHg 83%

    Tomorrow, 11 December, Tuesday

    Time Temperature Precipitation Wind Pressure Humidity
    00:00 +2°C° 0 mm 2 mps 699 mmHg 83%
    01:00 +1°C° 0 mm 2 mps 699 mmHg 84%
    02:00 +1°C° 0 mm 2 mps 699 mmHg 84%
    03:00 +1°C° 0 mm 2 mps 699 mmHg 83%
    04:00 -1°C° 0 mm 2 mps 699 mmHg 83%
    05:00 -1°C° 0 mm 2 mps 699 mmHg 82%
    06:00 -1°C° 0 mm 2 mps 700 mmHg 81%
    07:00 -1°C° 0 mm 2 mps 700 mmHg 81%
    08:00 +1°C° 0 mm 2 mps 700 mmHg 75%
    09:00 +2°C° 0 mm 2 mps 701 mmHg 69%
    10:00 +3°C° 0 mm 2 mps 702 mmHg 63%
    11:00 +4°C° 0 mm 2 mps 701 mmHg 60%
    12:00 +4°C° 0 mm 2 mps 701 mmHg 57%
    13:00 +4°C° 0 mm 2 mps 701 mmHg 55%
    14:00 +4°C° 0 mm 2 mps 701 mmHg 58%
    15:00 +3°C° 0 mm 2 mps 701 mmHg 61%
    16:00 +3°C° 0 mm 1 mps 701 mmHg 64%
    17:00 +2°C° 0 mm 1 mps 702 mmHg 66%
    18:00 +2°C° 0 mm 1 mps 702 mmHg 68%
    19:00 +1°C° 0 mm 1 mps 702 mmHg 69%
    20:00 +1°C° 0 mm 1 mps 702 mmHg 69%
    21:00 +1°C° 0 mm 1 mps 702 mmHg 69%
    22:00 +1°C° 0 mm 1 mps 702 mmHg 69%
    23:00 +1°C° 0 mm 1 mps 703 mmHg 68%

    Day after tomorrow, 12 December, Wednesday

    Time Temperature Precipitation Wind Pressure Humidity
    00:00 +1°C° 0 mm 1 mps 703 mmHg 67%
    01:00 +1°C° 0 mm 1 mps 703 mmHg 66%
    02:00 +1°C° 0 mm 1 mps 703 mmHg 66%
    03:00 +1°C° 0 mm 1 mps 703 mmHg 67%
    04:00 +1°C° 0 mm 1 mps 703 mmHg 68%
    05:00 0°C° 0 mm 1 mps 703 mmHg 69%
    06:00 0°C° 0 mm 1 mps 704 mmHg 71%
    07:00 0°C° 0 mm 1 mps 704 mmHg 73%
    08:00 +1°C° 0 mm 1 mps 704 mmHg 67%
    09:00 +3°C° 0 mm 1 mps 705 mmHg 62%
    10:00 +4°C° 0 mm 1 mps 705 mmHg 57%
    11:00 +4°C° 0 mm 1 mps 705 mmHg 54%
    12:00 +5°C° 0 mm 1 mps 705 mmHg 51%
    13:00 +6°C° 0 mm 1 mps 705 mmHg 48%
    14:00 +5°C° 0 mm 1 mps 705 mmHg 52%
    15:00 +4°C° 0 mm 1 mps 704 mmHg 55%
    16:00 +3°C° 0 mm 1 mps 704 mmHg 59%
    17:00 +2°C° 0 mm 1 mps 704 mmHg 61%
    18:00 +2°C° 0 mm 1 mps 705 mmHg 63%
    19:00 0°C° 0 mm 0 mps 705 mmHg 64%
    20:00 0°C° 0 mm 0 mps 705 mmHg 64%
    21:00 0°C° 0 mm 0 mps 705 mmHg 65%
    22:00 +1°C° 0 mm 1 mps 705 mmHg 65%
    23:00 +1°C° 0 mm 1 mps 705 mmHg 64%

    13 December, Thursday

    Time Temperature Precipitation Wind Pressure Humidity
    00:00 +1°C° 0 mm 1 mps 705 mmHg 64%
    01:00 +2°C° 0 mm 1 mps 705 mmHg 63%
    02:00 +2°C° 0 mm 1 mps 705 mmHg 64%
    03:00 +2°C° 0 mm 1 mps 705 mmHg 64%
    04:00 +2°C° 0 mm 1 mps 704 mmHg 64%
    05:00 +2°C° 0.2 mm 1 mps 705 mmHg 66%
    06:00 +2°C° 0.2 mm 1 mps 705 mmHg 68%
    07:00 +2°C° 0.2 mm 1 mps 705 mmHg 71%
    08:00 +2°C° 0.4 mm 1 mps 705 mmHg 72%
    09:00 +3°C° 0.4 mm 1 mps 705 mmHg 73%
    10:00 +3°C° 0.4 mm 1 mps 705 mmHg 74%
    11:00 +4°C° 0.4 mm 1 mps 704 mmHg 74%
    12:00 +4°C° 0.4 mm 1 mps 704 mmHg 74%
    13:00 +4°C° 0.4 mm 1 mps 704 mmHg 74%
    14:00 +4°C° 0.3 mm 1 mps 703 mmHg 77%
    15:00 +4°C° 0.3 mm 1 mps 703 mmHg 81%
    16:00 +3°C° 0.3 mm 1 mps 703 mmHg 84%
    17:00 +3°C° 0.1 mm 1 mps 703 mmHg 85%
    18:00 +3°C° 0.1 mm 1 mps 703 mmHg 87%
    19:00 +3°C° 0.1 mm 1 mps 703 mmHg 88%
    20:00 +3°C° 0.1 mm 1 mps 703 mmHg 88%
    21:00 +3°C° 0.1 mm 1 mps 703 mmHg 88%
    22:00 +3°C° 0.1 mm 1 mps 703 mmHg 88%
    23:00 +3°C° 0.1 mm 1 mps 703 mmHg 88%

    14 December, Friday

    Time Temperature Precipitation Wind Pressure Humidity
    00:00 +3°C° 0.1 mm 1 mps 703 mmHg 89%
    01:00 +3°C° 0.1 mm 1 mps 702 mmHg 89%
    02:00 +3°C° 0.1 mm 1 mps 702 mmHg 89%
    03:00 +3°C° 0.1 mm 1 mps 702 mmHg 89%
    04:00 +3°C° 0.1 mm 1 mps 702 mmHg 90%
    05:00 +3°C° 0.1 mm 1 mps 702 mmHg 90%
    06:00 +3°C° 0.1 mm 1 mps 701 mmHg 91%
    07:00 +4°C° 0.1 mm 1 mps 701 mmHg 91%
    08:00 +4°C° 0.1 mm 2 mps 701 mmHg 90%
    09:00 +5°C° 0.1 mm 2 mps 701 mmHg 89%
    10:00 +5°C° 0.1 mm 2 mps 701 mmHg 87%
    11:00 +6°C° 0.2 mm 2 mps 701 mmHg 87%
    12:00 +6°C° 0.2 mm 2 mps 700 mmHg 88%
    13:00 +7°C° 0.2 mm 2 mps 700 mmHg 88%
    14:00 +6°C° 0.6 mm 2 mps 699 mmHg 90%
    15:00 +6°C° 0.6 mm 2 mps 699 mmHg 91%
    16:00 +6°C° 0.6 mm 2 mps 698 mmHg 93%
    17:00 +6°C° 0.6 mm 2 mps 698 mmHg 94%
    18:00 +6°C° 0.6 mm 2 mps 697 mmHg 94%
    19:00 +6°C° 0.6 mm 2 mps 697 mmHg 95%
    20:00 +6°C° 0.8 mm 2 mps 697 mmHg 94%
    21:00 +6°C° 0.8 mm 2 mps 696 mmHg 94%
    22:00 +6°C° 0.8 mm 2 mps 696 mmHg 94%
    23:00 +6°C° 1.6 mm 2 mps 696 mmHg 94%

    15 December, Saturday

    Time Temperature Precipitation Wind Pressure Humidity
    00:00 +6°C° 1.6 mm 2 mps 696 mmHg 94%
    01:00 +7°C° 1.6 mm 1 mps 695 mmHg 94%
    02:00 +7°C° 0.7 mm 1 mps 695 mmHg 94%
    03:00 +6°C° 0.7 mm 1 mps 695 mmHg 94%
    04:00 +6°C° 0.7 mm 1 mps 695 mmHg 94%
    05:00 +6°C° 0.1 mm 1 mps 695 mmHg 93%
    06:00 +6°C° 0.1 mm 1 mps 695 mmHg 93%
    07:00 +5°C° 0.1 mm 1 mps 695 mmHg 93%
    08:00 +6°C° 0.2 mm 1 mps 695 mmHg 90%
    09:00 +7°C° 0.2 mm 1 mps 695 mmHg 86%
    10:00 +8°C° 0.2 mm 1 mps 696 mmHg 83%
    11:00 +9°C° 0.2 mm 1 mps 696 mmHg 81%
    12:00 +9°C° 0.2 mm 1 mps 696 mmHg 78%
    13:00 +9°C° 0.2 mm 2 mps 696 mmHg 75%
    14:00 +8°C° 0.1 mm 2 mps 696 mmHg 78%
    15:00 +7°C° 0.1 mm 2 mps 696 mmHg 81%
    16:00 +6°C° 0.1 mm 2 mps 697 mmHg 84%
    17:00 +5°C° 0 mm 2 mps 697 mmHg 85%
    18:00 +5°C° 0 mm 2 mps 698 mmHg 86%
    19:00 +4°C° 0 mm 2 mps 698 mmHg 87%
    20:00 +3°C° 0 mm 2 mps 699 mmHg 87%
    21:00 +3°C° 0 mm 2 mps 699 mmHg 87%
    22:00 +2°C° 0 mm 2 mps 699 mmHg 87%
    23:00 +2°C° 0 mm 2 mps 700 mmHg 86%
    Show more